Temp
14 14 14 15 15 15 15 15 16 16 16 17 17 17 17 18 18 19 19 19 20 20 19 18 19 19 20 22 21 23 26 26 26 25 22 22 21 20 20 22 22 22 23 21 19
14 14 14 14 15 15 15 15 15 16 16 16 17 17 18 18 18 18 20 21 20 20 18 20 21 20 22 23 23 26 28 25 25 25 23 23 22 21 22 21 21 22 22 20 19
14 14 14 14 14 15 15 15 15 15 15 16 17 17 17 18 16 21 20 21 20 20 19 21 21 22 24 24 25 26 26 26 24 23 23 21 19 19 22 22 20 22 21 20 20
13 14 14 14 14 14 14 15 15 16 15 16 16 17 17 18 24 19 20 20 20 19 19 20 22 23 26 26 25 26 25 26 24 22 21 22 19 20 20 21 22 21 21 20 20
13 13 14 14 15 14 14 15 15 16 16 15 16 17 17 17 20 20 20 20 19 18 20 21 22 24 26 26 25 26 27 26 25 24 23 21 22 20 21 20 20 21 21 21 21
13 13 13 14 14 14 15 15 15 16 16 15 16 17 16 21 18 19 17 17 18 19 20 21 23 24 26 26 26 26 27 27 26 25 24 22 21 23 22 19 20 21 21 21 22
13 13 13 14 14 15 15 16 16 16 16 15 16 17 15 19 17 17 17 18 19 20 21 21 22 23 25 26 25 26 27 28 27 26 26 24 22 22 21 20 21 21 22 22 22
13 13 14 14 14 15 16 16 16 16 16 16 16 17 20 18 17 17 17 18 18 20 21 20 21 23 25 25 25 27 28 28 27 27 26 24 23 23 18 20 21 22 22 22 21
13 13 14 14 15 15 15 16 16 16 16 16 15 15 20 18 18 18 19 19 19 19 19 20 21 24 24 27 27 28 29 29 27 27 27 25 22 22 21 21 23 22 22 22 22
13 13 14 14 15 15 15 15 15 15 16 16 15 16 18 20 19 18 18 19 19 20 20 21 23 25 27 28 27 28 29 29 28 26 26 25 23 23 23 24 23 23 23 22 22
14 14 14 15 15 16 16 16 15 14 14 20 20 20 21 19 19 19 19 19 20 21 24 23 24 25 27 28 29 30 29 29 28 27 28 28 28 26 24 24 23 23 23 23 23
14 14 15 15 15 16 16 17 16 15 20 18 18 18 19 21 21 20 19 21 22 23 24 23 24 27 27 27 27 28 28 29 28 28 28 27 28 27 25 25 24 23 23 22 23
15 15 15 15 15 16 15 15 16 16 20 20 20 21 21 21 23 20 20 22 23 24 24 25 26 26 26 25 26 28 28 28 28 28 28 26 27 26 25 25 23 22 22 23 23
15 15 15 15 15 16 16 16 17 16 22 22 22 22 21 22 23 22 21 23 24 24 24 25 26 25 25 26 27 27 28 28 28 28 29 28 26 26 26 25 22 23 22 22 23
16 16 16 16 16 16 16 16 17 16 21 22 23 21 22 23 22 22 22 23 24 24 24 25 25 25 25 26 27 28 27 27 28 28 28 28 29 26 26 25 25 23 22 22 23
16 16 16 16 16 16 16 16 16 21 19 22 23 23 24 23 23 22 22 22 23 24 25 25 25 26 26 27 26 27 26 27 28 29 27 30 29 25 25 22 24 24 23 23 21
16 16 16 16 16 16 16 17 21 21 21 21 22 24 24 23 23 23 23 23 23 22 23 24 24 24 24 25 26 26 27 26 26 26 28 30 29 22 22 21 21 21 21 22 23
16 16 17 17 17 17 16 21 20 19 20 21 21 23 23 23 22 22 23 22 22 23 25 24 22 24 23 25 26 26 28 28 25 27 28 28 27 20 23 22 19 16 16 17 19
17 17 16 17 17 17 19 21 19 19 19 20 22 22 22 22 22 22 22 22 20 22 23 24 22 22 22 23 24 26 26 29 28 29 29 27 22 23 23 22 19 16 14 15 17
17 17 17 18 18 17 21 17 19 19 19 20 21 21 22 22 22 22 21 20 20 20 21 23 22 22 22 22 24 25 27 26 27 26 26 26 24 22 20 19 19 15 13 14 14
17 19 17 18 18 20 20 18 19 18 18 20 20 20 21 20 22 21 19 19 19 20 21 23 24 22 22 22 23 24 25 26 27 27 27 26 24 18 17 16 16 14 13 12 13
18 21 17 18 21 19 20 18 16 18 18 19 19 20 19 19 20 20 19 18 17 19 21 21 24 22 22 19 20 22 23 24 26 25 27 28 19 16 16 15 15 14 13 12 12
18 18 17 18 20 19 18 18 17 18 18 18 18 18 19 19 18 19 18 16 17 19 19 20 22 21 21 21 20 21 21 23 24 26 26 27 19 14 14 15 14 14 14 13 12
17 20 18 17 17 19 18 18 17 16 16 16 17 18 19 19 19 18 18 17 17 17 13 17 21 21 22 21 22 21 20 21 23 25 26 26 15 13 14 14 14 14 14 14 14
16 17 15 19 18 18 18 17 17 17 16 16 17 17 18 18 18 18 18 18 17 15 17 20 19 19 19 18 19 19 20 20 21 22 23 23 16 14 14 13 13 14 14 13 13
17 17 15 15 15 17 15 17 17 16 17 16 16 17 18 18 18 18 18 19 18 18 18 18 18 18 18 17 18 19 19 19 20 20 22 17 12 14 13 13 14 13 13 14 13
14 14 16 13 16 18 17 16 16 16 15 16 16 17 17 16 16 16 16 17 17 18 17 17 17 17 19 17 18 18 19 19 20 19 21 18 16 14 15 15 15 14 13 13 13
Height
1516 1514 1513 1511 1509 1507 1505 1503 1502 1501 1500 1500 1499 1498 1497 1497 1497 1497 1497 1500 1500 1502 1506 1511 1514 1516 1519 1518 1518 1516 1504 1503 1504 1504 1514 1519 1522 1527 1527 1528 1529 1532 1532 1540 1545
1514 1512 1510 1508 1506 1505 1503 1501 1499 1498 1498 1497 1497 1496 1496 1496 1495 1494 1495 1495 1498 1501 1507 1510 1513 1515 1516 1516 1515 1509 1497 1507 1507 1505 1511 1516 1521 1525 1527 1529 1532 1533 1536 1543 1548
1512 1509 1507 1505 1503 1502 1500 1498 1497 1495 1496 1495 1495 1494 1494 1495 1496 1493 1491 1493 1496 1501 1509 1512 1513 1515 1513 1513 1512 1508 1504 1507 1509 1509 1513 1518 1523 1524 1526 1528 1532 1532 1537 1543 1549
1510 1507 1504 1503 1500 1499 1497 1495 1494 1493 1493 1493 1493 1492 1493 1494 1489 1491 1490 1491 1496 1502 1508 1511 1512 1512 1508 1509 1510 1507 1508 1507 1511 1516 1518 1519 1524 1525 1528 1529 1531 1534 1538 1543 1549
1508 1505 1503 1500 1498 1496 1495 1493 1491 1492 1491 1491 1491 1491 1492 1495 1493 1489 1489 1491 1496 1502 1507 1509 1510 1509 1506 1505 1509 1507 1506 1507 1511 1514 1516 1521 1522 1525 1528 1530 1531 1535 1541 1545 1551
1507 1504 1500 1498 1496 1494 1492 1490 1489 1489 1490 1489 1490 1491 1492 1492 1491 1490 1491 1494 1498 1503 1507 1509 1510 1510 1506 1506 1504 1505 1506 1506 1510 1512 1516 1521 1524 1524 1529 1531 1534 1538 1543 1548 1552
1504 1502 1499 1496 1494 1491 1489 1487 1487 1487 1489 1488 1488 1489 1492 1493 1492 1492 1495 1499 1502 1505 1507 1509 1510 1511 1507 1506 1506 1505 1504 1504 1507 1510 1512 1519 1525 1526 1529 1533 1536 1540 1544 1549 1553
1501 1499 1497 1494 1492 1489 1487 1486 1485 1485 1487 1487 1488 1489 1490 1490 1493 1494 1498 1500 1503 1505 1508 1509 1510 1510 1507 1506 1505 1501 1499 1500 1503 1506 1511 1516 1524 1525 1529 1532 1537 1541 1545 1549 1553
1499 1496 1494 1492 1491 1488 1486 1485 1484 1484 1487 1487 1489 1489 1490 1491 1494 1496 1499 1502 1504 1506 1507 1509 1510 1507 1507 1500 1499 1496 1493 1493 1503 1505 1507 1513 1523 1525 1529 1532 1535 1540 1544 1549 1553
1496 1494 1492 1490 1489 1488 1487 1486 1486 1487 1487 1488 1489 1493 1491 1490 1493 1496 1499 1501 1504 1506 1508 1510 1507 1503 1497 1493 1498 1493 1488 1492 1497 1506 1507 1513 1520 1523 1527 1529 1534 1538 1542 1547 1551
1494 1492 1490 1489 1488 1488 1487 1487 1491 1492 1489 1484 1484 1485 1485 1489 1491 1496 1499 1501 1503 1505 1499 1505 1502 1497 1492 1487 1480 1481 1486 1491 1496 1500 1501 1501 1502 1516 1523 1527 1532 1537 1540 1543 1548
1492 1489 1488 1488 1489 1489 1488 1490 1489 1490 1484 1484 1485 1486 1487 1487 1490 1495 1499 1499 1500 1497 1496 1504 1498 1491 1490 1492 1494 1490 1491 1493 1500 1499 1501 1508 1507 1513 1520 1525 1528 1533 1537 1542 1546
1491 1489 1487 1488 1490 1490 1489 1490 1488 1486 1483 1482 1483 1484 1485 1487 1486 1492 1496 1494 1495 1493 1496 1493 1490 1494 1495 1497 1496 1491 1490 1494 1495 1500 1500 1508 1511 1515 1521 1522 1528 1532 1536 1539 1542
1491 1489 1488 1489 1493 1491 1491 1488 1487 1486 1473 1480 1480 1482 1485 1483 1484 1489 1492 1492 1492 1492 1493 1489 1489 1494 1495 1494 1492 1494 1490 1494 1499 1500 1501 1500 1525 1517 1516 1523 1530 1531 1535 1538 1541
1493 1491 1490 1490 1490 1491 1491 1488 1486 1487 1479 1480 1479 1481 1482 1481 1482 1489 1491 1492 1487 1487 1492 1487 1490 1493 1494 1491 1493 1490 1493 1497 1496 1497 1498 1502 1500 1517 1515 1523 1525 1529 1534 1537 1541
1495 1493 1491 1491 1492 1491 1489 1487 1487 1480 1490 1478 1478 1476 1478 1479 1481 1487 1490 1491 1487 1488 1488 1484 1489 1489 1488 1490 1494 1495 1498 1500 1498 1493 1509 1485 1491 1523 1524 1535 1529 1530 1532 1534 1539
1495 1493 1491 1491 1492 1489 1488 1488 1478 1474 1481 1482 1479 1474 1471 1478 1484 1483 1485 1486 1487 1494 1492 1491 1491 1496 1496 1494 1494 1496 1494 1509 1517 1513 1502 1484 1496 1529 1532 1535 1535 1535 1536 1535 1535
1496 1494 1491 1489 1488 1487 1487 1482 1483 1487 1481 1482 1481 1475 1477 1479 1486 1486 1486 1488 1490 1485 1480 1490 1506 1494 1498 1492 1490 1491 1486 1488 1516 1507 1493 1493 1505 1538 1531 1533 1538 1541 1540 1538 1535
1495 1493 1492 1489 1486 1486 1486 1478 1488 1488 1488 1485 1480 1477 1482 1483 1484 1488 1487 1491 1498 1493 1485 1485 1500 1501 1502 1498 1497 1488 1493 1476 1481 1475 1483 1494 1526 1527 1530 1534 1539 1541 1540 1536 1532
1494 1493 1491 1488 1486 1486 1480 1492 1491 1494 1492 1486 1479 1480 1481 1483 1486 1485 1491 1500 1498 1499 1495 1489 1502 1500 1502 1501 1498 1492 1486 1496 1488 1503 1502 1498 1518 1524 1536 1541 1542 1545 1542 1538 1534
1494 1490 1490 1488 1486 1484 1482 1492 1493 1496 1494 1489 1488 1488 1484 1488 1483 1491 1500 1504 1504 1500 1497 1491 1488 1503 1501 1502 1499 1496 1492 1491 1481 1480 1488 1500 1516 1538 1544 1547 1547 1549 1546 1542 1538
1494 1486 1490 1487 1486 1487 1487 1494 1498 1496 1495 1493 1492 1488 1491 1492 1492 1494 1499 1504 1508 1504 1499 1500 1488 1497 1503 1514 1514 1505 1500 1495 1492 1498 1482 1476 1534 1544 1548 1550 1550 1550 1549 1546 1542
1493 1492 1491 1487 1483 1489 1496 1498 1500 1497 1498 1495 1495 1495 1495 1495 1501 1500 1503 1511 1508 1506 1505 1503 1497 1504 1510 1509 1511 1507 1508 1502 1496 1486 1485 1488 1528 1546 1550 1551 1552 1551 1550 1549 1547
1496 1488 1493 1492 1495 1491 1494 1496 1499 1504 1502 1501 1500 1498 1495 1496 1496 1502 1506 1510 1510 1510 1511 1507 1500 1500 1496 1500 1498 1508 1510 1508 1499 1492 1485 1490 1534 1549 1550 1551 1553 1552 1552 1551 1550
1498 1498 1497 1491 1496 1496 1497 1499 1499 1500 1504 1503 1502 1501 1497 1499 1498 1503 1505 1508 1511 1513 1512 1506 1506 1507 1509 1512 1511 1512 1512 1512 1506 1502 1499 1497 1528 1544 1548 1551 1553 1553 1553 1553 1553
1498 1498 1500 1500 1501 1497 1500 1500 1501 1503 1503 1503 1503 1503 1501 1500 1502 1503 1503 1505 1506 1512 1512 1512 1512 1511 1514 1516 1515 1514 1513 1513 1511 1510 1503 1524 1543 1546 1549 1550 1552 1554 1554 1554 1555
1501 1501 1498 1503 1499 1495 1498 1501 1503 1505 1509 1508 1507 1503 1507 1512 1511 1511 1512 1513 1513 1512 1513 1513 1513 1515 1508 1519 1516 1517 1507 1510 1510 1514 1506 1522 1530 1543 1546 1547 1550 1552 1554 1555 1556
Wind_Speed
14 14 13 12 11 12 12 11 10 9 6 7 8 7 8 7 7 10 13 9 14 18 19 17 14 14 11 9 5 3 5 4 5 1 8 16 8 3 3 11 3 6 7 28 30
15 15 14 12 11 11 11 12 10 9 7 6 7 7 7 7 8 12 8 11 17 21 21 22 19 17 11 10 5 6 2 6 5 2 11 16 12 10 8 11 6 10 21 29 29
15 14 13 13 12 10 10 10 10 8 7 6 6 5 5 4 3 3 8 14 20 24 19 16 16 14 10 9 8 4 2 5 8 11 15 13 11 4 9 6 11 18 27 33 30
15 14 12 12 12 11 9 9 9 8 5 5 4 3 3 3 0 3 7 15 21 23 20 17 17 14 10 9 9 6 2 3 7 10 7 10 13 7 5 2 7 16 31 35 31
15 14 13 12 12 12 11 10 8 8 5 4 3 2 4 4 2 4 8 18 24 22 22 20 17 12 10 8 10 7 4 3 6 10 8 12 10 5 7 5 13 24 32 32 29
16 14 13 13 13 13 11 9 6 6 6 3 3 3 4 6 1 2 13 20 19 22 20 17 13 9 7 9 13 8 5 2 7 9 13 8 7 12 10 12 18 28 30 28 26
16 15 14 12 13 13 10 7 5 4 5 3 3 5 4 3 6 11 14 14 17 16 19 16 10 9 9 9 7 6 7 5 7 10 7 11 9 6 16 15 20 26 28 26 24
16 15 13 13 13 11 7 4 4 4 4 3 5 7 3 7 10 13 13 13 12 14 13 12 10 7 11 2 8 10 8 10 8 11 7 10 9 10 20 17 20 24 26 24 22
16 14 12 11 11 8 6 3 0 5 5 6 5 6 8 9 11 13 13 12 12 10 10 10 10 8 10 12 12 10 12 6 8 12 7 8 9 14 20 17 18 22 24 23 22
15 12 10 8 6 4 4 6 7 8 7 5 3 4 8 11 13 14 10 14 12 14 12 12 10 9 11 12 14 16 8 7 9 11 9 10 10 14 16 15 16 20 22 23 23
15 11 7 5 3 3 5 2 1 4 6 4 4 3 15 11 13 16 13 10 13 18 11 17 10 15 17 16 8 11 9 10 6 14 9 10 10 12 14 14 16 17 21 24 25
14 8 4 2 7 9 7 2 4 3 4 6 5 5 6 12 14 17 16 12 14 15 12 11 15 14 12 7 9 12 12 12 9 7 6 5 7 4 15 12 14 18 18 20 24
11 6 2 6 7 4 5 3 6 4 6 6 6 6 9 13 16 20 21 9 15 13 16 14 13 11 13 13 13 13 13 10 10 7 5 6 11 12 6 8 8 14 18 20 22
11 7 4 8 4 2 1 7 8 3 6 7 9 7 9 9 7 18 20 10 9 14 13 10 10 17 15 15 15 14 5 4 8 8 9 13 3 9 10 11 8 8 10 16 17
15 10 5 5 3 1 4 10 7 3 5 4 9 8 9 13 21 11 14 9 12 10 11 8 14 17 15 13 12 5 9 10 8 10 3 15 11 8 10 9 5 11 10 12 17
13 11 8 2 1 4 7 7 2 7 5 6 3 9 13 13 5 13 13 9 1 12 14 8 4 11 12 10 12 5 10 9 8 10 11 11 12 8 5 6 5 4 2 10 16
8 10 7 4 3 7 5 2 6 3 4 4 4 10 12 12 11 9 8 9 8 12 13 10 10 4 2 12 11 13 15 10 11 9 9 11 8 9 7 7 7 10 6 3 8
4 9 9 7 6 4 2 8 1 2 4 2 2 7 10 10 5 6 10 10 5 8 14 12 12 5 1 6 10 18 18 9 12 13 12 6 7 7 8 10 14 13 12 9 6
5 6 7 11 8 2 9 2 5 4 4 3 8 11 10 7 5 5 5 5 5 8 4 9 6 5 4 3 6 19 13 7 6 6 10 12 11 11 7 11 14 18 18 18 15
6 3 7 9 8 0 2 5 3 6 5 2 5 6 12 8 9 5 3 4 3 7 5 2 9 1 3 3 2 6 3 10 8 13 14 11 14 9 6 8 11 17 19 20 20
6 5 8 8 7 2 3 5 5 7 4 5 2 5 5 7 4 4 3 6 5 4 3 2 5 8 6 3 2 7 9 10 8 5 14 10 8 6 8 8 11 15 19 20 20
5 3 9 6 1 2 5 2 1 5 5 4 4 6 5 3 5 4 6 6 6 4 2 4 3 6 8 6 1 2 4 9 10 13 9 7 7 8 9 9 11 14 17 20 22
2 4 7 2 2 6 7 9 10 6 7 3 4 6 2 4 5 6 6 6 4 3 2 3 2 7 8 8 5 3 1 3 7 9 16 12 9 9 11 11 12 14 16 19 21
2 2 6 11 6 5 4 4 5 5 9 6 4 3 5 5 4 9 10 5 7 9 5 3 1 5 3 7 4 6 3 2 8 11 12 10 17 10 11 9 10 13 15 17 20
3 3 3 3 6 6 1 1 4 3 4 5 4 3 2 4 10 7 8 10 7 3 2 3 2 1 4 4 2 0 3 3 7 5 9 16 18 12 11 11 10 10 12 14 16
2 2 3 5 3 1 3 3 5 6 3 7 7 5 1 4 4 9 9 4 2 3 2 2 3 4 3 1 3 7 5 7 6 4 4 19 10 14 13 14 12 11 10 12 14
6 3 2 2 3 3 3 4 6 5 5 6 5 7 10 8 8 8 6 4 4 1 2 3 5 7 8 3 4 8 13 11 7 5 7 11 13 15 13 12 10 9 10 11 11
Wind_Direction
333 331 329 324 320 316 313 310 310 308 302 299 299 283 267 256 254 248 246 217 201 182 164 161 163 167 175 193 214 244 245 85 7 288 133 158 146 137 129 133 142 161 158 154 154
333 331 328 324 319 316 310 304 302 302 301 297 297 283 271 261 264 258 227 205 195 180 165 168 169 168 184 202 205 259 317 39 358 17 155 162 151 132 148 140 125 136 134 152 155
339 337 333 328 325 320 310 301 295 292 298 297 297 277 262 263 282 194 201 199 185 175 173 170 173 176 187 196 193 175 60 85 48 89 131 142 128 116 156 167 177 162 155 157 159
345 340 339 333 330 325 315 299 289 281 283 291 291 258 210 193 224 216 212 187 177 165 175 176 177 188 197 197 184 212 187 25 103 130 126 159 129 144 171 48 184 169 162 159 163
344 341 339 336 332 330 321 301 283 276 268 272 272 217 166 224 271 267 189 174 171 167 174 178 185 192 194 188 185 224 160 138 141 148 141 131 154 144 167 111 137 153 160 163 165
342 338 334 333 330 330 322 301 273 264 262 236 225 206 151 212 233 169 152 157 170 172 180 187 195 194 186 190 208 180 215 185 163 159 153 147 157 167 139 133 139 155 162 166 169
340 336 333 329 330 329 320 300 265 244 249 225 184 171 191 93 139 146 151 156 161 176 177 181 194 197 179 178 195 194 218 166 189 170 162 164 164 173 142 149 149 163 166 169 173
337 333 333 327 332 331 326 308 254 211 220 191 157 148 128 171 149 146 158 159 163 162 178 179 183 208 224 125 201 214 224 185 148 170 146 189 138 142 154 153 158 169 171 174 178
338 334 335 329 338 339 338 338 116 186 186 147 131 164 129 151 155 159 154 164 167 169 167 179 174 211 183 203 189 202 196 184 143 183 139 198 123 149 163 165 165 175 177 180 181
337 335 333 332 352 357 70 77 85 115 128 120 184 218 157 174 165 167 162 160 163 164 157 182 193 202 208 204 192 186 187 177 145 174 158 192 105 151 164 171 174 178 181 185 186
333 334 333 348 64 88 128 58 96 172 218 294 122 331 139 140 149 172 158 163 169 178 180 189 198 202 190 209 306 176 194 150 126 148 179 190 144 151 174 180 180 185 190 189 189
336 335 343 108 116 97 90 32 19 324 234 221 225 250 168 161 140 161 166 164 172 185 172 174 218 194 183 181 204 201 176 136 114 150 226 123 120 113 170 190 191 191 195 194 187
355 358 45 138 145 126 92 32 0 3 253 158 179 179 167 171 164 167 178 190 191 181 195 196 193 168 193 188 199 202 198 161 158 148 182 169 119 125 134 145 170 190 192 199 189
19 33 79 135 144 189 104 346 338 317 230 134 174 155 161 179 149 168 180 184 185 199 195 223 153 183 194 194 211 186 231 189 172 206 183 151 179 71 141 130 143 170 183 191 197
37 42 87 146 148 251 293 324 320 257 175 147 135 148 169 200 139 169 187 217 197 179 199 174 177 190 194 195 209 212 159 208 205 225 192 182 218 96 93 104 121 165 180 200 194
28 37 51 125 295 282 307 316 222 231 101 143 163 171 174 162 117 151 186 218 237 170 222 137 177 200 202 185 209 124 174 173 209 225 223 179 242 85 77 34 63 79 112 200 203
16 29 30 44 300 299 308 213 227 346 177 108 121 193 154 143 123 170 180 170 198 186 187 162 170 132 245 191 198 205 184 171 193 207 227 150 224 69 80 69 49 32 23 286 236
7 23 29 11 325 302 219 234 15 106 35 107 157 186 143 140 116 150 171 147 75 279 184 179 170 189 326 273 190 207 204 198 189 195 181 152 168 115 81 67 56 36 22 12 288
325 328 22 360 4 95 246 330 25 20 5 349 176 170 140 124 134 135 95 91 44 350 270 201 106 123 62 20 285 185 231 310 268 222 199 141 89 118 103 65 50 33 20 19 13
319 276 350 3 20 319 265 80 82 14 341 259 176 294 161 137 154 146 138 44 63 28 308 108 135 114 102 213 136 293 212 210 235 185 214 156 173 97 82 45 45 30 21 21 31
331 251 1 10 33 294 59 72 72 33 358 352 94 123 103 132 146 116 68 88 20 29 5 263 252 135 189 348 21 179 208 233 275 270 216 161 133 91 84 43 55 42 34 32 39
317 249 351 24 218 49 77 46 35 20 22 66 49 66 92 110 104 112 110 37 353 332 55 23 300 162 102 128 83 320 340 265 231 201 255 285 105 101 98 70 65 55 47 45 46
311 10 355 354 102 97 117 96 56 37 36 32 57 39 67 115 116 111 118 48 40 33 24 1 217 164 168 174 180 212 110 264 263 269 230 241 125 126 111 92 67 66 58 53 51
284 214 70 66 69 78 120 79 113 49 55 53 66 97 138 112 97 146 130 85 66 78 30 277 158 302 314 46 57 173 177 293 268 241 235 237 128 139 126 110 87 71 61 59 56
354 64 339 107 78 85 84 73 97 97 70 26 81 56 121 141 130 132 135 137 101 86 54 319 197 246 66 67 32 271 226 222 253 304 269 126 131 143 131 119 104 85 78 66 55
340 201 94 100 120 173 157 93 108 116 358 71 96 99 153 110 329 155 148 173 106 118 58 317 172 199 177 302 264 248 227 221 209 204 186 110 113 136 127 125 113 95 81 66 53
74 76 300 154 145 232 66 106 122 134 77 91 93 113 98 71 66 80 57 73 82 281 135 229 167 204 214 214 223 239 211 204 168 212 197 178 145 157 149 137 117 97 78 63 45